Tracking 27423 objects as of 8-Jun-2023
HD Live streaming from Space Station
objects crossing your sky now

WESTFORD NEEDLES

Track WESTFORD NEEDLES now!
10-day predictions
WESTFORD NEEDLES is classified as:


NORAD ID: 2375
Int'l Code: 1963-014W
Perigee: 1,863.6 km
Apogee: 5,288.5 km
Inclination: 86.3 °
Period: 164.6 minutes
Semi major axis: 9947 km
RCS: 0.1605 m2 (medium)
Launch date: May 9, 1963
Source: United States (US)
Launch site: AIR FORCE WESTERN TEST RANGE (AFWTR)
Your satellite tracking list
Your tracking list is empty




NASA's NSSDC Master Catalog

Two Line Element Set (TLE):
1 02375U 63014W   23158.08392543  .00000148  00000-0  13875-1 0  9992
2 02375  86.3261 205.5390 1721585 324.5755  25.1791  8.75105884274698
Source of the keplerian elements: AFSPC